This demonstration page uses our WeatherBlox Daily Observations layout. Learn more.

41.55636, -103.73856

Hourly Observations for April 23, 2019

Temp ( °F °C ) Dew Point ( °F °C ) Humidity (%) Winds ( mph kmh ) Pressure ( in mb ) Visibility ( mi km ) Precip ( " mm )
12:58 am 00:58 Cloudy 46 7.7 35 1.5 65 65 E 3 6 30.28 1025 10 16.0934 0 0
1:58 am 01:58 Cloudy 45 7.2 36 2.3 71 71 ESE 5 7 30.28 1026 10 16.0934 0 0
2:58 am 02:58 Cloudy 44 6.6 37 2.7 76 76 ESE 3 6 30.28 1026 10 16.0934 0 0
3:58 am 03:58 Mostly Cloudy 40 4.6 35 1.7 82 82 SSW 6 9 30.29 1026 10 16.0934 0 0
4:58 am 04:58 Clear 38 3.4 34 1.1 85 85 SW 12 19 30.31 1026 10 16.0934 0 0
5:58 am 05:58 Clear 38 3.1 33 0.8 85 85 SW 9 15 30.27 1025 10 16.0934 0 0
6:58 am 06:58 Clear 37 2.5 33 0.6 87 87 SW 10 17 30.27 1025 10 16.0934 0 0
7:58 am 07:58 Clear 36 2.4 33 0.3 86 86 SW 12 19 30.25 1024 10 16.0934 0 0
8:58 am 08:58 Clear 37 2.5 32 0.1 84 84 SW 10 17 30.22 1023 10 16.0934 0 0
9:58 am 09:58 Clear 36 2.2 32 0.2 87 87 SW 10 17 30.22 1023 10 16.0934 0 0
10:58 am 10:58 Clear 34 1.2 32 -0.2 91 91 SSW 8 13 30.21 1023 10 16.0934 0 0
11:59 am 11:59 Clear 32 0 30 -1.1 92 92 SSW 8 13 30.2 1023 10 16.0934 0 0
12:58 pm 12:58 Mostly Sunny 36 2.2 34 0.9 91 91 SSW 14 22 30.18 1022 10 16.0934 0 0
1:58 pm 13:58 Sunny 43 6.1 39 3.7 85 85 SSW 16 26 30.13 1020 10 16.0934 0 0
2:58 pm 14:58 Sunny 47 8.4 39 3.9 74 74 SW 20 31 30.13 1020 10 16.0934 0 0
3:58 pm 15:58 Sunny 51 10.5 39 3.9 64 64 SSW 20 31 30.1 1019 10 16.0934 0 0
4:58 pm 16:58 Sunny 54 12.2 40 4.5 60 60 SW 14 22 30.1 1019 10 16.0934 0 0
5:58 pm 17:58 Sunny 57 13.8 40 4.7 54 54 SSW 15 24 30.07 1018 10 16.0934 0 0
6:58 pm 18:58 Sunny 59 15.1 41 5.2 52 52 SW 15 24 30.04 1017 10 16.0934 0 0
7:58 pm 19:58 Sunny 61 16 41 4.9 48 48 SW 13 20 30.01 1016 10 16.0934 0 0
8:58 pm 20:58 Sunny 62 16.9 38 3.5 41 41 WSW 7 11 29.97 1015 10 16.0934 0 0
9:59 pm 21:59 Mostly Sunny 64 18 37 2.6 36 36 W 6 9 29.95 1014 10 16.0934 0 0
10:58 pm 22:58 Sunny 64 17.6 37 3 38 38 Calm 29.94 1014 10 16.0934 0 0
11:59 pm 23:59 Sunny 65 18.3 35 1.9 34 34 NNW 3 6 29.94 1014 10 16.0934 0 0

Powered by AerisWeather